Showing default

XINGYUN-2 02, 45603

Orbit data source: Space-Track

XINGYUN-2 02, 45603 is a payload satellite owned by Xingyun (CN) in SSO that was launched on Tue, 12 May 2020 UTC via a KUAIZHOU-1A launch vehicle from the Jiuquan Satellite Launch Center, China (JSC). Payload-class satellites include a variety of spacecraft equipped with specific instruments for various scientific and technological missions. These include communications satellites like Starlink; space stations such as the ISS; scientific satellites like the Hubble; Earth observation satellites from companies like Planet Labs, Umbra, and HawkEye 360; GPS; miniature CubeSats for education and research; and military/defense satellites.

Loading next visibility...
Identifier
45603, 2020-028B
Orbit
SSO
Country
Flag of CNCN / PRC
Related business
Manufacturer
Sanjiang
Mission
Operational Commercial Communications
Bus & Motor
XINGYUN, Unknown motor
Mass
93 kg wet, ~85 kg dry
Launch date (UTC)
2020-05-12 (5 years ago)
Launch vehicle
KUAIZHOU-1A
Launch site
Jiuquan Satellite Launch Center, China (JSC)
Object type
Payload
Rocket body
Debris
Shape & HBR
Box, Unknown HBR
Radar Cross Section
0.569 m², Medium (>0.1 m² and < 1m²)

Expand to show TLE details & history
Last TLE update: 9 hours ago

TLE from 9 hours ago
0 XINGYUN-2 02
1 45603U 20028B   25307.82267087  .00003210  00000-0  20011-3 0  9990
2 45603  97.5102 312.9713 0010428 335.4708  24.6024 15.10209331300809
Epoch: 2025-11-03T19:44Z
TLE epoch observation values (Epoch: 2025-11-03T19:44:38.763Z)
Latitude
-0.00001°
Longitude
-26.50874°
Altitude
532.08 km
Speed
7.6 km/s
True Right ascension
20h 51m 53s
True Declination
0° 00' 00"
Sunlit
Object was in daylight at epoch
Visualization orbit readout
Latitude
Unknown
Longitude
Unknown
Altitude
Unknown
Speed
Unknown
Apparent Right ascension
Unknown
Apparent Declination
Unknown
Sunlit
N/A
Visualization observer readout
Local Sidereal Time
00:30:28
Azimuth
Unknown
Elevation
Unknown
Doppler factor
Unknown
Orbital elements
Apogee altitude
539.751 km
Perigee altitude
525.338 km
Semi-major axis
6,910.681 km
Eccentricity
0.00104
Inclination
97.5102°
RAAN
312.9713°
Arg. of periapsis
335.4708°
True anomaly
24.65221°
Mean anomaly
24.6024°
Eccentric anomaly
24.6273°
Mean motion
3.778 °/min
Orbital period
95.29 mins
BSTAR
0.00020011
Loading maneuver chart data...
Computing Atmospheric mass density...
Loading historical data...
Loading historical data...
Loading historical data...
Loading historical data...
Loading historical data...
Loading historical data...
Loading historical data...
Other satellites on launch #28 in the year 2020 (2020-05-12 UTC)

Documentation

Showing up to 5 results
|